Regional Weather Roundup
Issued by NWS Little Rock, AR

Home | Current Version | Previous Version | Graphics & Text | Print | Product List | Glossary On
Versions: 1 2 3 4 5 6 7 8 9 10 11 12 13 14 15 16 17 18 19 20 21 22 23 24 25 26 27 28 29 30 31 32 33 34 35 36 37 38 39 40 41 42 43 44 45 46 47 48 49 50
000
ASUS44 KLZK 232005
RWRLZK

WEATHER ROUNDUP FOR ARKANSAS
NATIONAL WEATHER SERVICE LITTLE ROCK AR
300 PM CDT SAT JUL 23 2016

NOTE: "FAIR" INDICATES FEW OR NO CLOUDS BELOW 12,000 FEET WITH NO
SIGNIFICANT WEATHER AND/OR OBSTRUCTIONS TO VISIBILITY.

ARZ001-003-010-029-232100-
NORTHWEST ARKANSAS

CITY           SKY/WX    TMP DP  RH WIND       PRES   REMARKS
FAYETTEVILLE   MOSUNNY   93  75  55 S7        29.97F HX 104
FORT SMITH     MOSUNNY   97  70  41 VRB5      29.91F HX 103
HARRISON       PTSUNNY   94  72  48 CALM      29.98F HX 102
BENTONVILLE    SUNNY     93  70  46 W6        30.00F HX  99
ROGERS         MOSUNNY   93  73  52 W6        29.99F HX 102
SILOAM SPGS    SUNNY     95  70  43 SW6       29.99F HX 101
HIGHFILL       SUNNY     95  75  52 SW8       29.98F HX 107
SPRINGDALE     PTSUNNY   90  75  62 CALM      30.00F HX 100
$$

ARZ004-005-016-232100-
NORTH CENTRAL ARKANSAS

CITY           SKY/WX    TMP DP  RH WIND       PRES   REMARKS
BATESVILLE     MOSUNNY   97  73  46 S5        29.93S HX 107
FLIPPIN        SUNNY     97  73  46 NE5       29.93F HX 107
MTN HOME       SUNNY     95  73  48 VRB3      29.95F HX 104
$$

ARZ040-041-232100-
WEST CENTRAL ARKANSAS

CITY           SKY/WX    TMP DP  RH WIND       PRES   REMARKS
MENA           CLOUDY    91  72  52 S9G17     29.98R HX  98
MOUNT IDA      PTSUNNY   94  71  47 VRB6      29.94S HX 101
$$

ARZ009-017-025-026-028-232100-
NORTHEAST ARKANSAS

CITY           SKY/WX    TMP DP  RH WIND       PRES   REMARKS
CORNING          N/A     93  75  55 NE6       29.94F HX 104
JONESBORO      PTSUNNY   89  79  72 SE9       29.94F HX 104
NEWPORT        SUNNY     97  77  52 NE3       29.93F HX 112
WALNUT RIDGE   SUNNY     95  75  52 E8        29.91F HX 107
BLYTHEVILLE    SUNNY     90  77  65 CALM      29.96F HX 103
$$

ARZ022-023-033-042-044-232100-
CENTRAL ARKANSAS

CITY           SKY/WX    TMP DP  RH WIND       PRES   REMARKS
LITTLE ROCK    PTSUNNY  100  76  46 S5        29.90F HX 114
N LITTLE ROCK    N/A     93  80  64 E3        29.88F HX 112
JACKSONVILLE   MOSUNNY   97  77  51 S5        29.90F HX 112
SEARCY         SUNNY    100  77  47 VRB5      29.91F THUNDER HX 116
HOT SPRINGS    MOSUNNY  100  69  36 CALM      29.92F HX 106
RUSSELLVILLE   MOSUNNY   96  73  47 CALM      29.91F HX 105
$$

ARZ036-232100-
EAST ARKANSAS

CITY           SKY/WX    TMP DP  RH WIND       PRES   REMARKS
WEST MEMPHIS   CLOUDY    87  73  62 SE10      29.94F HX  94
$$

ARZ050-053-066-070-073-232100-
SOUTHWEST ARKANSAS

CITY           SKY/WX    TMP DP  RH WIND       PRES   REMARKS
CAMDEN         CLOUDY    81  68  65 SW6G20    29.93F
TEXARKANA      MOSUNNY   98  73  44 VRB6      29.92F HX 108
EL DORADO      MOSUNNY   95  74  50 W3        29.94F HX 105
DE QUEEN       MOSUNNY   87  71  58 NE8G20    29.92R THUNDER HX  93
$$

ARZ056-057-069-232100-
SOUTHEAST ARKANSAS

CITY           SKY/WX    TMP DP  RH WIND       PRES   REMARKS
PINE BLUFF     MOSUNNY   97  76  50 SE7       29.91F HX 110
STUTTGART      PTSUNNY  100  77  47 W8        29.91F HX 116
MONTICELLO     MOSUNNY   96  75  50 SE3       29.92F HX 108

$$





USA.gov is the U.S. government's official web portal to all federal, state and local government web resources and services.